Regional Weather Roundup
Issued by NWS

Home | Current Version | Previous Version | Graphics & Text | Print | Product List | Glossary On
Versions: 1 2 3 4 5 6 7 8 9 10 11 12 13 14 15 16 17 18 19 20 21 22 23 24 25 26 27 28 29 30 31 32 33 34 35 36 37 38 39 40 41 42 43 44 45 46 47 48 49 50
000
ASUS43 KOAX 272102
RWRNE

WEATHER ROUNDUP FOR NEBRASKA
NATIONAL WEATHER SERVICE OMAHA NE
400 PM CDT THU APR 27 2017

NOTES: SATELLITE DATA IS BEING USED TO AUGMENT CLOUD COVER ABOVE
       12000 FEET.
       "FAIR" INDICATES FEW OR NO CLOUDS BELOW 12,000 FEET WITH NO
       SIGNIFICANT WEATHER AND/OR OBSTRUCTIONS TO VISIBILITY.

  * THESE STATIONS DO NOT REPORT WEATHER SUCH AS RAIN...SNOW OR FOG.

NEZ001>004-019>022-054>056-272200-
NEBRASKA PANHANDLE

CITY           SKY/WX    TMP DP  RH WIND       PRES   REMARKS
SCOTTSBLUFF    CLOUDY    49  42  77 E13       29.54F
ALLIANCE       CLOUDY    50  36  58 SE14      29.54S
CHADRON        CLOUDY    50  35  56 E14       29.56S
KIMBALL        LGT RAIN  44  41  88 E8        29.55S
SIDNEY         CLOUDY    50  36  58 E14       29.54S
$$

NEZ057>060-069>072-079>082-272200-
SOUTHWEST NEBRASKA

CITY           SKY/WX    TMP DP  RH WIND       PRES   REMARKS
NORTH PLATTE   MOSUNNY   57  38  48 SE20G28   29.58S
IMPERIAL       PTSUNNY   53  35  50 E23       29.53F
LEXINGTON      CLOUDY    51  35  54 E15       29.63S
MCCOOK         CLOUDY    53  36  52 SE18G29   29.58S
OGALLALA       CLOUDY    60  36  41 E14G22    29.54F
$$

NEZ005>010-023>029-035>040-094-272200-
NORTH CENTRAL NEBRASKA

CITY           SKY/WX    TMP DP  RH WIND       PRES   REMARKS
VALENTINE      MOSUNNY   55  29  36 E9G17     29.64R
AINSWORTH      MOSUNNY   52  34  50 SE6       29.64F
BROKEN BOW     CLOUDY    53  34  48 E12       29.63F
O`NEILL        PTSUNNY   51  32  48 SE3       29.69S
ORD            CLOUDY    52  32  46 E6        29.65F
THEDFORD       CLOUDY    54  37  52 SE9       29.62F
$$

NEZ041-046>049-061>064-073>077-083>087-272200-
SOUTH CENTRAL NEBRASKA

CITY           SKY/WX    TMP DP  RH WIND       PRES   REMARKS
GRAND ISLAND   MOSUNNY   56  31  38 S5        29.67F
AURORA         PTSUNNY   57  30  35 SE5       29.67F
HASTINGS       CLOUDY    55  33  43 SE12      29.67F
HEBRON         CLOUDY    57  32  38 S3        29.69S
HOLDREGE       PTSUNNY   55  36  48 SE15G23   29.63S
KEARNEY *      CLOUDY    52  36  54 SE8       29.65F
$$

NEZ011>018-030>034-042>045-272200-
NORTHEAST NEBRASKA

CITY           SKY/WX    TMP DP  RH WIND       PRES   REMARKS
NORFOLK        SUNNY     49  33  54 CALM      29.68F
ALBION         PTSUNNY   55  33  44 W5        29.67F
BLAIR          SUNNY     54  34  47 W7        29.69F
FREMONT        SUNNY     55  34  45 SW7       29.70F
TEKAMAH        MOSUNNY   56  33  42 NW8       29.69F
WAYNE          MOSUNNY   52  36  55 NW7       29.69F
$$

NEZ050>053-065>068-078-088>093-272200-
SOUTHEAST NEBRASKA

CITY           SKY/WX    TMP DP  RH WIND       PRES   REMARKS
LINCOLN        CLOUDY    58  32  37 W8        29.70F
OMAHA EPPLEY   MOSUNNY   56  34  43 NW8       29.70F
BEATRICE       PTSUNNY   57  33  39 W3        29.71S
FALLS CITY     PTSUNNY   59  39  47 NW6       29.70S
NEBRASKA CITY  CLOUDY    57  26  30 W6        29.70F
PLATTSMOUTH    MOSUNNY   56  28  33 W5        29.70F
$$

NEZ044-045-051>053-067-272200-
OMAHA AREA

CITY           SKY/WX    TMP DP  RH WIND       PRES   REMARKS
OMAHA EPPLEY   MOSUNNY   56  34  43 NW8       29.70F
BLAIR          SUNNY     54  34  47 W7        29.69F
FREMONT        SUNNY     55  34  45 SW7       29.70F
MILLARD        SUNNY     56  37  47 W8        29.70F
OFFUTT AFB     SUNNY     55  35  47 NW10      29.69F
PLATTSMOUTH    MOSUNNY   56  28  33 W5        29.70F
WAHOO          FAIR      56  30  35 W3G9      29.69F
$$



USA.gov is the U.S. government's official web portal to all federal, state and local government web resources and services.